Location: Juzet
(42.9779°N, 0.7597°E)
Time: 18:48:23
(UTC+00:00)

SL-16 R/B - Pass Details

Date: 14 July 2020
Orbit: 985 x 1007 km, 99.5° (Epoch: 11 August)

Event Time Altitude Azimuth Distance (km) Brightness Sun altitude
Exits shadow 01:57:01 33° 186° (S) 1,618 3.1 -20.3°
Maximum altitude 01:59:54 65° 257° (WSW) 1,095 2.5 -20.0°
Drops below altitude 10° 02:06:09 10° 340° (NNW) 2,790 5.4 -19.4°
Sets 02:08:41 0° 343° (NNW) 3,745 6.2 -19.2°
